Location: Newark
(53.3469°N, 7.1606°E)
Time: 16:57:13
(UTC+00:00)

N. Korean satellite - Pass Details

Date: 13 November 2019
Orbit: 455 x 507 km, 97.2° (Epoch: 13 December)

Event Time Altitude Azimuth Distance (km) Brightness Sun altitude
Rises 17:46:31 0° 216° (SW) 2,550 10.8 -18.9°
Reaches altitude 10° 17:49:37 10° 246° (WSW) 1,689 10.4 -19.4°
Maximum altitude 17:51:17 13° 273° (W) 1,535 10.2 -19.6°
Drops below altitude 10° 17:52:58 10° 301° (WNW) 1,709 10.1 -19.9°
Sets 17:56:08 0° 331° (NNW) 2,610 10.6 -20.4°
